Weather reports worldwide

Advertisment
St. Athan, United Kingdom (3716): temperature & dewpoint: 20.09.2018 10:00:00 - 26.09.2018 10:00:00 (BST)St. Athan, United Kingdom (3716): temperature -20cm & temperature -100cm: 20.09.2018 10:00:00 - 26.09.2018 10:00:00 (BST)St. Athan, United Kingdom (3716): wind speed & gusts: 20.09.2018 10:00:00 - 26.09.2018 10:00:00 (BST)St. Athan, United Kingdom (3716): wind direction: 20.09.2018 10:00:00 - 26.09.2018 10:00:00 (BST)St. Athan, United Kingdom (3716): reduced air pressure: 20.09.2018 10:00:00 - 26.09.2018 10:00:00 (BST)St. Athan, United Kingdom (3716): visibility: 20.09.2018 10:00:00 - 26.09.2018 10:00:00 (BST)St. Athan, United Kingdom (3716): sunshine duration: 20.09.2018 10:00:00 - 26.09.2018 10:00:00 (BST)St. Athan, United Kingdom (3716): precipitation: 20.09.2018 10:00:00 - 26.09.2018 10:00:00 (BST)
Date & Time tt [°C] td [°C] tt -20cm [°C] tt -100cm [°C] ff [km/h] ff [kn] fx [km/h] fx [kn] dd ppp [hPa] vv [km] sd [min] rr [mm]
26.09.2018 10:00:00 14,5 10,8 14,2 15,4 13 7 - - W 1033,2 10 60 0,0
26.09.2018 09:00:00 11,6 9,9 - - 5 3 - - W 1033,1 10 60 0,0
26.09.2018 08:00:00 7,7 6,2 - - 5 3 - - NNW 1033,2 18 18 0,0
26.09.2018 07:00:00 8,8 5,3 - - 8 4 - - W 1032,9 35 0 0,0
26.09.2018 06:00:00 8,9 6,7 - - 9 5 - - WNW 1032,9 50 0 0,0
26.09.2018 05:00:00 8,8 7,4 - - 5 3 - - W 1033,1 26 0 0,0
26.09.2018 04:00:00 8,3 6,9 - - 4 2 - - N 1033,5 18 0 0,0
26.09.2018 03:00:00 9,7 7,6 - - 5 3 - - NNW 1033,8 35 0 0,0
26.09.2018 02:00:00 9,3 7,0 - - 2 1 - - SSE 1034,0 30 0 0,0
26.09.2018 01:00:00 12,2 9,0 - - 8 4 - - S 1034,3 45 - 0,0
26.09.2018 00:00:00 12,6 8,7 - - 9 5 - - SSW 1034,4 45 0 0,0
25.09.2018 23:00:00 12,8 8,5 - - 11 6 - - SW 1034,7 50 0 0,0
25.09.2018 22:00:00 12,1 8,2 - - 8 4 - - SSW 1034,9 40 0 0,0
25.09.2018 21:00:00 12,4 8,7 - - 8 4 - - SSW 1035,1 50 0 0,0
25.09.2018 20:00:00 11,6 7,0 - - 2 1 - - W 1034,7 30 0 0,0
25.09.2018 19:00:00 13,9 7,5 - - 8 4 - - NW 1034,4 35 48 0,0
25.09.2018 18:00:00 16,0 9,0 - - 4 2 - - W 1034,4 28 60 0,0
25.09.2018 17:00:00 15,8 8,0 - - 5 3 - - S 1034,7 35 60 0,0
25.09.2018 16:00:00 16,2 7,7 - - 5 3 - - S 1035,4 10 60 0,0
25.09.2018 15:00:00 16,2 7,4 - - 8 4 - - SE 1036,0 10 60 0,0
25.09.2018 14:00:00 15,8 8,0 - - 9 5 - - SE 1036,4 10 60 0,0
25.09.2018 13:00:00 15,0 5,1 - - 8 4 - - ESE 1037,3 10 60 0,0
25.09.2018 12:00:00 13,9 5,8 - - 8 4 - - SE 1037,9 10 60 0,0
25.09.2018 11:00:00 12,7 7,6 - - 9 5 - - E 1038,2 26 60 0,0
25.09.2018 10:00:00 11,1 8,3 14,2 15,7 9 5 - - E 1038,2 10 60 0,0
25.09.2018 09:00:00 8,6 6,8 - - 9 5 - - NE 1038,1 10 60 0,0
25.09.2018 08:00:00 5,6 4,1 - - 8 4 - - NE 1038,0 10 30 0,0
25.09.2018 07:00:00 5,4 3,5 - - 9 5 - - ENE 1037,9 45 0 0,0
25.09.2018 06:00:00 5,1 3,4 - - 11 6 - - NNE 1038,1 35 0 0,0
25.09.2018 05:00:00 4,8 2,9 - - 11 6 - - E 1037,6 35 0 0,0
25.09.2018 04:00:00 5,8 4,0 - - 8 4 - - NE 1038,3 35 0 0,0
25.09.2018 03:00:00 6,7 4,3 - - 9 5 - - NNE 1038,7 45 0 0,0
25.09.2018 02:00:00 6,6 4,5 - - 8 4 - - NNE 1038,5 50 0 0,0
25.09.2018 01:00:00 6,7 4,5 - - 8 4 - - NNE 1038,9 35 - 0,0
25.09.2018 00:00:00 8,0 4,8 - - 8 4 - - N 1039,1 45 0 0,0
24.09.2018 23:00:00 7,6 3,9 - - 5 3 - - N 1038,9 35 0 0,0
24.09.2018 22:00:00 8,7 4,8 - - 8 4 - - N 1038,6 40 0 0,0
24.09.2018 21:00:00 11,0 4,6 - - 8 4 - - WNW 1038,5 40 0 0,0
24.09.2018 20:00:00 11,2 6,0 - - 8 4 - - W 1038,3 40 0 0,0
24.09.2018 19:00:00 12,1 6,8 - - 11 6 - - W 1038,1 35 54 0,0
24.09.2018 18:00:00 13,6 6,3 - - 13 7 - - WSW 1038,1 30 60 0,0
24.09.2018 17:00:00 13,9 6,0 - - 15 8 - - WSW 1038,2 27 60 0,0
24.09.2018 16:00:00 14,1 6,1 - - 15 8 - - WSW 1038,8 10 42 0,0
24.09.2018 15:00:00 13,4 5,8 - - 13 7 - - SW 1038,7 10 48 0,0
24.09.2018 14:00:00 13,8 5,0 - - 9 5 - - SW 1039,0 10 54 0,0
24.09.2018 13:00:00 12,9 5,9 - - 9 5 - - SW 1039,7 10 36 0,0
24.09.2018 12:00:00 14,3 3,1 - - 5 3 - - NW 1039,7 10 60 0,0
24.09.2018 11:00:00 12,0 5,0 - - 11 6 - - NNE 1039,4 10 60 0,0
24.09.2018 10:00:00 10,8 6,3 14,5 15,7 9 5 - - NNE 1039,2 10 60 0,0
24.09.2018 09:00:00 8,6 5,7 - - 9 5 - - NNW 1038,6 10 60 0,0
24.09.2018 08:00:00 6,6 3,9 - - 9 5 - - NW 1037,9 30 30 0,0
24.09.2018 07:00:00 6,0 3,7 - - 9 5 - - N 1037,1 30 0 0,0
24.09.2018 06:00:00 6,4 3,9 - - 9 5 - - N 1036,9 40 0 0,0
24.09.2018 05:00:00 6,2 3,8 - - 8 4 - - N 1036,4 45 0 0,0
24.09.2018 04:00:00 5,9 3,7 - - 9 5 - - NNW 1036,2 50 0 0,0
24.09.2018 03:00:00 5,6 2,2 - - 5 3 - - NNW 1035,9 50 0 0,0
24.09.2018 02:00:00 7,6 4,3 - - 11 6 - - NNW 1035,3 50 0 0,0
24.09.2018 01:00:00 6,7 3,9 - - 5 3 - - WNW 1034,7 50 - 0,0
24.09.2018 00:00:00 7,2 3,5 - - 8 4 - - W 1033,8 50 0 0,0
23.09.2018 23:00:00 6,2 3,6 - - 2 1 - - WNW 1033,0 45 0 0,0
23.09.2018 22:00:00 9,2 4,2 - - 8 4 - - NW 1032,0 50 0 0,0
23.09.2018 21:00:00 9,3 4,5 - - 13 7 - - NW 1030,8 45 0 0,0
23.09.2018 20:00:00 9,9 4,7 - - 9 5 - - NW 1029,5 45 0 0,0
23.09.2018 19:00:00 11,1 3,7 - - 16 9 - - NW 1028,1 40 54 0,0
23.09.2018 18:00:00 12,3 4,2 - - 18 10 - - NW 1027,0 28 60 0,0
23.09.2018 17:00:00 12,6 4,2 - - 24 13 - - NW 1025,6 35 60 0,0
23.09.2018 16:00:00 13,5 3,6 - - 24 13 - - NW 1024,6 10 54 0,0
23.09.2018 15:00:00 13,7 4,9 - - 26 14 - - NNW 1023,7 10 54 0,0
23.09.2018 14:00:00 13,5 5,6 - - 21 11 - - NW 1022,4 10 54 0,0
23.09.2018 13:00:00 11,8 7,3 - - 9 5 - - NNW 1021,6 10 24 0,0
23.09.2018 12:00:00 11,1 7,5 - - 8 4 - - NE 1021,1 10 18 0,0
23.09.2018 11:00:00 9,0 6,9 - - 4 2 - - NNW 1020,2 10 0 0,0
23.09.2018 10:00:00 9,0 6,3 15,0 15,9 21 11 - - NNE 1018,5 10 0 0,2
23.09.2018 09:00:00 8,8 6,8 - - 21 11 - - N 1017,5 10 0 1,6
23.09.2018 08:00:00 8,9 8,1 - - 13 7 - - N 1016,0 16 0 2,2
23.09.2018 07:00:00 8,9 8,1 - - 18 10 - - NNE 1014,4 10 0 0,8
23.09.2018 06:00:00 9,1 8,5 - - 16 9 - - NE 1014,5 4,7 0 0,4
23.09.2018 05:00:00 9,4 8,7 - - 21 11 - - NE 1014,1 4,1 0 0,0
23.09.2018 04:00:00 9,8 8,9 - - 18 10 - - NE 1014,1 12 0 0,0
23.09.2018 03:00:00 10,2 9,0 - - 18 10 - - NE 1014,0 17 0 0,0
23.09.2018 02:00:00 10,3 9,0 - - 21 11 - - NE 1014,0 45 0 0,0
23.09.2018 01:00:00 10,2 9,3 - - 21 11 - - NE 1014,2 30 - 0,0
23.09.2018 00:00:00 10,3 9,3 - - 21 11 - - NE 1013,9 24 0 0,0
22.09.2018 23:00:00 10,2 9,2 - - 21 11 - - ENE 1013,7 35 0 0,0
22.09.2018 22:00:00 10,1 9,3 - - 24 13 - - ENE 1012,8 23 0 0,0
22.09.2018 21:00:00 10,0 9,4 - - 26 14 - - ENE 1012,8 13 0 0,0
22.09.2018 20:00:00 10,1 9,6 - - 26 14 - - ENE 1012,5 3,9 0 0,4
22.09.2018 19:00:00 10,1 9,6 - - 28 15 - - ENE 1012,3 3,1 0 0,6
22.09.2018 18:00:00 10,3 9,7 - - 28 15 - - ENE 1012,2 4,1 0 0,4
22.09.2018 17:00:00 10,2 9,7 - - 24 13 - - ENE 1012,7 4,0 0 1,0
22.09.2018 16:00:00 10,1 9,6 - - 26 14 - - E 1013,7 3,4 0 0,8
22.09.2018 15:00:00 10,1 9,3 - - 21 11 - - E 1014,9 3,5 0 1,2
22.09.2018 14:00:00 10,3 9,4 - - 16 9 - - E 1015,8 7 0 1,6
22.09.2018 13:00:00 10,6 9,4 - - 13 7 - - ESE 1017,1 10 0 1,4
22.09.2018 12:00:00 10,8 9,7 - - 5 3 - - ESE 1018,2 7 0 2,4
22.09.2018 11:00:00 10,9 8,9 - - 0 0 - - N 1018,8 7 0 1,6
22.09.2018 10:00:00 11,0 8,6 15,7 16,0 8 4 - - W 1019,0 10 0 0,8
22.09.2018 09:00:00 11,4 8,9 - - 21 11 - - WSW 1018,9 10 0 0,2
22.09.2018 08:00:00 10,8 8,8 - - 21 11 - - WSW 1019,1 12 0 0,8
22.09.2018 07:00:00 11,0 9,5 - - 5 3 - - N 1018,7 20 0 0,2
22.09.2018 06:00:00 10,5 9,2 - - 4 2 - - NNE 1018,4 25 0 0,0
22.09.2018 05:00:00 10,6 8,9 - - 8 4 - - NNW 1018,5 35 0 0,4
22.09.2018 04:00:00 11,3 8,7 - - 11 6 - - WNW 1018,8 22 0 1,4
22.09.2018 03:00:00 11,5 9,1 - - 8 4 - - NW 1018,8 23 0 0,0
22.09.2018 02:00:00 10,7 8,5 - - 5 3 - - NNW 1018,8 29 0 0,6
22.09.2018 01:00:00 11,6 9,5 - - 16 9 - - WNW 1018,9 6 - 1,0
22.09.2018 00:00:00 12,0 8,1 - - 15 8 - - NW 1018,4 40 0 0,0
21.09.2018 23:00:00 13,6 8,5 - - 24 13 - - W 1017,9 23 0 0,0
21.09.2018 22:00:00 13,8 9,0 - - 22 12 - - W 1017,6 20 0 0,0
21.09.2018 21:00:00 13,6 8,6 - - 26 14 - - W 1016,9 24 0 0,0
21.09.2018 20:00:00 13,7 8,6 - - 29 16 52 28 W 1016,2 18 0 0,0
21.09.2018 19:00:00 13,8 7,9 - - 39 21 61 33 W 1014,7 25 48 0,0
21.09.2018 18:00:00 14,3 7,9 - - 41 22 63 34 W 1014,0 35 60 0,0
21.09.2018 17:00:00 14,5 7,8 - - 41 22 68 37 W 1013,4 35 60 0,0
21.09.2018 16:00:00 14,8 8,3 - - 42 23 65 35 W 1013,1 26 54 0,0
21.09.2018 15:00:00 13,7 8,6 - - 41 22 68 37 W 1012,6 10 36 0,6
21.09.2018 14:00:00 13,0 9,5 - - 50 27 81 44 W 1011,7 10 30 0,6
21.09.2018 13:00:00 12,9 9,7 - - 46 25 81 44 W 1010,6 10 18 2,2
21.09.2018 12:00:00 12,6 8,0 - - 44 24 78 42 W 1010,0 10 18 0,0
21.09.2018 11:00:00 13,5 5,9 - - 42 23 67 36 W 1009,4 10 42 0,0
21.09.2018 10:00:00 11,9 5,2 16,2 16,0 39 21 63 34 W 1008,9 10 24 0,6
21.09.2018 09:00:00 11,4 6,9 - - 26 14 55 30 W 1008,1 10 18 0,4
21.09.2018 08:00:00 11,3 4,8 - - 35 19 59 32 W 1007,0 28 0 0,4
21.09.2018 07:00:00 10,6 6,5 - - 26 14 61 33 WNW 1006,1 35 0 1,0
21.09.2018 06:00:00 10,4 6,6 - - 28 15 - - WNW 1005,1 25 0 0,0
21.09.2018 05:00:00 9,2 5,8 - - 28 15 54 29 WNW 1004,3 45 0 0,0
21.09.2018 04:00:00 9,8 7,3 - - 37 20 61 33 WNW 1003,2 27 0 0,4
21.09.2018 03:00:00 10,6 9,0 - - 37 20 50 27 WNW 1001,5 6 0 0,4
21.09.2018 02:00:00 11,9 9,3 - - 31 17 65 35 W 999,7 19 0 0,0
21.09.2018 01:00:00 13,6 10,7 - - 48 26 80 43 W 998,2 13 - 0,0
21.09.2018 00:00:00 15,2 11,3 - - 50 27 81 44 WSW 997,2 13 0 0,6
20.09.2018 23:00:00 16,4 15,1 - - 41 22 61 33 WSW 995,9 5 0 6,0
20.09.2018 22:00:00 18,1 15,4 - - 39 21 61 33 SSW 996,0 9 0 0,6
20.09.2018 21:00:00 17,7 16,0 - - 24 13 - - S 997,5 9 0 1,8
20.09.2018 20:00:00 18,4 15,9 - - 22 12 - - SSW 999,2 25 0 0,6
20.09.2018 19:00:00 17,9 15,7 - - 21 11 - - S 1000,7 14 0 0,2
20.09.2018 18:00:00 18,6 15,5 - - 22 12 46 25 SSW 1002,2 5 0 0,0
20.09.2018 17:00:00 18,5 15,6 - - 22 12 - - SSW 1003,5 10 0 0,0
20.09.2018 16:00:00 18,3 15,9 - - 24 13 46 25 SSW 1004,7 10 0 0,0
20.09.2018 15:00:00 18,5 16,0 - - 22 12 46 25 SSW 1005,4 10 0 0,0
20.09.2018 14:00:00 18,5 15,8 - - 22 12 - - SSW 1006,0 10 0 0,0
20.09.2018 13:00:00 17,9 15,8 - - 18 10 - - SSW 1006,6 10 0 0,0
20.09.2018 12:00:00 17,9 15,8 - - 18 10 - - SSW 1007,3 10 0 0,0
20.09.2018 11:00:00 14,9 14,8 - - 11 6 - - ESE 1008,3 10 0 1,0
20.09.2018 10:00:00 12,9 12,7 16,4 16,2 13 7 - - ENE 1009,2 4,0 0 3,2

tt = temperature
td = dewpoint
tt -20cm = temperature -20cm
tt -100cm = temperature -100cm
ff = wind speed
fx = gusts
dd = wind direction
ppp = reduced air pressure
vv = visibility
sd = sunshine duration
rr = precipitation

Next stations